Location: *
(50.9167°S, 179.4000°W)
Time: 21:59:00
(UTC+00:00)

USA 267 - Pass Details

Date: 03 March 2024
Orbit: 1102 x 1105 km, 123.0° (Epoch: 06 April)

Event Time Altitude Azimuth Distance (km) Brightness Sun altitude
Rises 13:28:17 0° 121° (ESE) 3,955 6.9 -30.1°
Reaches altitude 10° 13:30:46 10° 121° (ESE) 2,995 6.2 -30.0°
Maximum altitude 13:37:25 87° 207° (SSW) 1,124 3.2 -29.5°
Enters shadow 13:38:13 72° 290° (WNW) 1,172 3.1 -29.5°
